Time,TemperatureF,DewpointF,PressureIn,WindDirection,WindDirectionDegrees,WindSpeedMPH,WindSpeedGustMPH,Humidity,HourlyPrecipIn,Conditions,Clouds,dailyrainin,SoftwareType,DateUTC
2013-03-12 00:00:00,28.9,22.3,29.74,East,101,13.0,17.0,76,0.00,,SCT,0.00,WeatherDisplay:10.37,2013-03-12 00:00:00,
2013-03-12 00:15:00,28.9,22.3,29.74,ESE,102,13.0,15.0,76,0.00,,SCT,0.00,WeatherDisplay:10.37,2013-03-12 00:15:00,
2013-03-12 00:20:00,28.8,22.5,29.74,SSW,193,5.0,15.0,77,0.00,,SCT,0.00,WeatherDisplay:10.37,2013-03-12 00:20:00,
2013-03-12 00:30:00,28.6,22.3,29.74,South,190,7.0,17.0,77,0.00,,SCT,0.00,WeatherDisplay:10.37,2013-03-12 00:30:00,
2013-03-12 00:35:00,28.6,22.3,29.74,SSE,151,7.0,8.0,77,0.00,,SCT,0.00,WeatherDisplay:10.37,2013-03-12 00:35:00,
2013-03-12 00:40:00,28.7,22.4,29.74,ENE,62,8.0,15.0,77,0.00,,SCT,0.00,WeatherDisplay:10.37,2013-03-12 00:40:00,
2013-03-12 00:50:00,28.8,22.5,29.73,SE,126,6.0,11.0,77,0.00,,SCT,0.00,WeatherDisplay:10.37,2013-03-12 00:50:00,
2013-03-12 00:55:00,28.6,22.3,29.74,SE,128,3.0,11.0,77,0.00,,SCT,0.00,WeatherDisplay:10.37,2013-03-12 00:55:00,
2013-03-12 01:00:00,28.6,22.3,29.74,ESE,112,3.0,5.0,77,0.00,,SCT,0.00,WeatherDisplay:10.37,2013-03-12 01:00:00,
2013-03-12 01:05:00,28.6,22.3,29.74,SSE,155,3.0,4.0,77,0.00,,SCT,0.00,WeatherDisplay:10.37,2013-03-12 01:05:00,
2013-03-12 01:10:00,28.6,22.3,29.74,SE,128,3.0,5.0,77,0.00,,SCT,0.00,WeatherDisplay:10.37,2013-03-12 01:10:00,
2013-03-12 01:15:00,28.6,22.3,29.74,ENE,72,5.0,5.0,77,0.00,,SCT,0.00,WeatherDisplay:10.37,2013-03-12 01:15:00,
2013-03-12 01:20:00,28.6,22.3,29.74,ESE,114,7.0,7.0,77,0.00,,SCT,0.00,WeatherDisplay:10.37,2013-03-12 01:20:00,
2013-03-12 01:25:00,28.6,22.3,29.74,East,90,12.0,12.0,77,0.00,,SCT,0.00,WeatherDisplay:10.37,2013-03-12 01:25:00,
2013-03-12 01:30:00,28.6,22.3,29.73,East,80,0.0,5.0,77,0.00,,SCT,0.00,WeatherDisplay:10.37,2013-03-12 01:30:00,
2013-03-12 01:35:00,28.4,22.1,29.74,East,89,3.0,3.0,77,0.00,,SCT,0.00,WeatherDisplay:10.37,2013-03-12 01:35:00,
2013-03-12 01:40:00,28.2,21.9,29.74,ENE,64,2.0,6.0,77,0.00,,SCT,0.00,WeatherDisplay:10.37,2013-03-12 01:40:00,
2013-03-12 01:45:00,28.2,22.2,29.74,East,84,8.0,8.0,78,0.00,,SCT,0.00,WeatherDisplay:10.37,2013-03-12 01:45:00,
2013-03-12 01:50:00,28.2,22.2,29.73,ENE,69,5.0,5.0,78,0.00,,SCT,0.00,WeatherDisplay:10.37,2013-03-12 01:50:00,
2013-03-12 01:55:00,28.2,21.9,29.73,ENE,78,5.0,6.0,77,0.00,,SCT,0.00,WeatherDisplay:10.37,2013-03-12 01:55:00,
2013-03-12 02:05:00,28.2,21.9,29.73,ENE,72,10.0,10.0,77,0.00,,SCT,0.00,WeatherDisplay:10.37,2013-03-12 02:05:00,
2013-03-12 02:10:00,28.2,21.9,29.73,NE,45,6.0,7.0,77,0.00,,SCT,0.00,WeatherDisplay:10.37,2013-03-12 02:10:00,
2013-03-12 02:15:00,28.2,21.9,29.73,ENE,62,5.0,7.0,77,0.00,,SCT,0.00,WeatherDisplay:10.37,2013-03-12 02:15:00,
2013-03-12 02:20:00,28.1,21.8,29.73,ENE,64,5.0,12.0,77,0.00,,SCT,0.00,WeatherDisplay:10.37,2013-03-12 02:20:00,
2013-03-12 02:30:00,28.0,22.1,29.74,ENE,72,5.0,5.0,78,0.00,,SCT,0.00,WeatherDisplay:10.37,2013-03-12 02:30:00,
2013-03-12 02:35:00,27.9,22.0,29.74,ENE,59,3.0,8.0,78,0.00,,SCT,0.00,WeatherDisplay:10.37,2013-03-12 02:35:00,
2013-03-12 02:40:00,27.7,22.0,29.73,NNE,30,8.0,8.0,79,0.00,,SCT,0.00,WeatherDisplay:10.37,2013-03-12 02:40:00,
2013-03-12 02:50:00,28.0,22.3,29.73,NNE,27,10.0,11.0,79,0.00,,SCT,0.00,WeatherDisplay:10.37,2013-03-12 02:50:00,
2013-03-12 02:55:00,28.0,22.4,29.73,North,0,10.0,11.0,79,0.00,,SCT,0.00,WeatherDisplay:10.37,2013-03-12 02:55:00,
2013-03-12 03:00:00,28.0,22.4,29.73,North,354,8.0,10.0,79,0.00,,SCT,0.00,WeatherDisplay:10.37,2013-03-12 03:00:00,
2013-03-12 03:05:00,28.0,22.4,29.73,North,8,0.0,10.0,79,0.00,,SCT,0.00,WeatherDisplay:10.37,2013-03-12 03:05:00,
2013-03-12 03:15:00,28.2,22.2,29.73,NW,320,2.0,7.0,78,0.00,,SCT,0.00,WeatherDisplay:10.37,2013-03-12 03:15:00,
2013-03-12 03:20:00,28.2,22.2,29.73,SE,125,2.0,6.0,78,0.00,,SCT,0.00,WeatherDisplay:10.37,2013-03-12 03:20:00,
2013-03-12 03:25:00,28.2,22.2,29.73,ESE,122,5.0,5.0,78,0.00,,SCT,0.00,WeatherDisplay:10.37,2013-03-12 03:25:00,
2013-03-12 03:30:00,28.2,22.2,29.73,NE,36,8.0,10.0,78,0.00,,SCT,0.00,WeatherDisplay:10.37,2013-03-12 03:30:00,
2013-03-12 03:40:00,28.2,22.2,29.74,East,94,5.0,6.0,78,0.00,,SCT,0.00,WeatherDisplay:10.37,2013-03-12 03:40:00,
2013-03-12 03:45:00,28.2,21.9,29.74,East,86,12.0,12.0,77,0.00,,SCT,0.00,WeatherDisplay:10.37,2013-03-12 03:45:00,
2013-03-12 03:50:00,28.2,21.9,29.74,ENE,63,6.0,12.0,77,0.00,,SCT,0.00,WeatherDisplay:10.37,2013-03-12 03:50:00,
2013-03-12 04:00:00,28.2,21.9,29.74,NE,46,3.0,12.0,77,0.00,,SCT,0.00,WeatherDisplay:10.37,2013-03-12 04:00:00,
2013-03-12 04:05:00,28.2,21.9,29.73,NE,37,8.0,14.0,77,0.00,,SCT,0.00,WeatherDisplay:10.37,2013-03-12 04:05:00,
2013-03-12 04:10:00,28.2,21.9,29.73,East,89,8.0,15.0,77,0.00,,SCT,0.00,WeatherDisplay:10.37,2013-03-12 04:10:00,
2013-03-12 04:15:00,28.2,21.6,29.74,East,81,7.0,15.0,76,0.00,,SCT,0.00,WeatherDisplay:10.37,2013-03-12 04:15:00,
2013-03-12 04:20:00,28.2,21.6,29.74,NE,44,3.0,3.0,76,0.00,,SCT,0.00,WeatherDisplay:10.37,2013-03-12 04:20:00,
2013-03-12 04:30:00,28.2,21.6,29.74,NNE,21,5.0,8.0,76,0.00,,SCT,0.00,WeatherDisplay:10.37,2013-03-12 04:30:00,
2013-03-12 04:40:00,28.2,21.6,29.74,ENE,61,9.0,11.0,76,0.00,,SCT,0.00,WeatherDisplay:10.37,2013-03-12 04:40:00,
2013-03-12 04:50:00,28.5,21.6,29.74,NE,49,9.0,10.0,75,0.00,,SCT,0.00,WeatherDisplay:10.37,2013-03-12 04:50:00,
2013-03-12 04:55:00,28.6,21.7,29.75,ENE,78,7.0,9.0,75,0.00,,SCT,0.00,WeatherDisplay:10.37,2013-03-12 04:55:00,
2013-03-12 05:00:00,28.6,21.3,29.75,ENE,59,2.0,5.0,74,0.00,,SCT,0.00,WeatherDisplay:10.37,2013-03-12 05:00:00,
2013-03-12 05:05:00,28.6,21.3,29.74,NNE,29,2.0,3.0,74,0.00,,SCT,0.00,WeatherDisplay:10.37,2013-03-12 05:05:00,
2013-03-12 05:10:00,28.6,21.3,29.75,East,92,6.0,6.0,74,0.00,,SCT,0.00,WeatherDisplay:10.37,2013-03-12 05:10:00,
2013-03-12 05:15:00,28.6,21.3,29.75,East,81,3.0,6.0,74,0.00,,SCT,0.00,WeatherDisplay:10.37,2013-03-12 05:15:00,
2013-03-12 05:20:00,28.6,21.3,29.75,West,262,3.0,3.0,74,0.00,,SCT,0.00,WeatherDisplay:10.37,2013-03-12 05:20:00,
2013-03-12 05:25:00,28.6,21.3,29.75,NE,36,3.0,4.0,74,0.00,,SCT,0.00,WeatherDisplay:10.37,2013-03-12 05:25:00,
2013-03-12 05:30:00,28.8,21.5,29.75,East,84,2.0,4.0,74,0.00,,SCT,0.00,WeatherDisplay:10.37,2013-03-12 05:30:00,
2013-03-12 05:35:00,28.8,21.5,29.75,East,87,3.0,7.0,74,0.00,,SCT,0.00,WeatherDisplay:10.37,2013-03-12 05:35:00,
2013-03-12 05:40:00,28.8,21.5,29.75,North,1,2.0,7.0,74,0.00,,SCT,0.00,WeatherDisplay:10.37,2013-03-12 05:40:00,
2013-03-12 05:45:00,28.8,21.2,29.75,West,278,2.0,3.0,73,0.00,,SCT,0.00,WeatherDisplay:10.37,2013-03-12 05:45:00,
2013-03-12 05:50:00,28.9,21.3,29.76,NE,48,5.0,5.0,73,0.00,,SCT,0.00,WeatherDisplay:10.37,2013-03-12 05:50:00,
2013-03-12 05:55:00,28.9,21.0,29.75,NE,40,3.0,5.0,72,0.00,,SCT,0.00,WeatherDisplay:10.37,2013-03-12 05:55:00,
2013-03-12 06:00:00,28.9,21.0,29.75,East,79,2.0,4.0,72,0.00,,SCT,0.00,WeatherDisplay:10.37,2013-03-12 06:00:00,
2013-03-12 06:10:00,28.9,21.0,29.75,NE,38,8.0,9.0,72,0.00,,SCT,0.00,WeatherDisplay:10.37,2013-03-12 06:10:00,
2013-03-12 06:15:00,29.0,20.7,29.76,ENE,61,5.0,9.0,71,0.00,,SCT,0.00,WeatherDisplay:10.37,2013-03-12 06:15:00,
2013-03-12 06:20:00,29.1,20.9,29.75,NE,53,8.0,9.0,71,0.00,,SCT,0.00,WeatherDisplay:10.37,2013-03-12 06:20:00,
2013-03-12 06:30:00,29.1,20.9,29.76,NE,39,8.0,15.0,71,0.00,,SCT,0.00,WeatherDisplay:10.37,2013-03-12 06:30:00,
2013-03-12 06:35:00,29.1,20.9,29.76,East,80,3.0,15.0,71,0.00,,SCT,0.00,WeatherDisplay:10.37,2013-03-12 06:35:00,
2013-03-12 06:40:00,29.1,20.9,29.76,ENE,68,8.0,10.0,71,0.00,,SCT,0.00,WeatherDisplay:10.37,2013-03-12 06:40:00,
2013-03-12 06:50:00,29.3,20.7,29.76,NE,48,5.0,9.0,70,0.00,,SCT,0.00,WeatherDisplay:10.37,2013-03-12 06:50:00,
2013-03-12 06:55:00,29.3,20.7,29.76,ENE,67,7.0,7.0,70,0.00,,SCT,0.00,WeatherDisplay:10.37,2013-03-12 06:55:00,
2013-03-12 07:00:00,29.5,20.9,29.77,North,5,5.0,12.0,70,0.00,,SCT,0.00,WeatherDisplay:10.37,2013-03-12 07:00:00,
2013-03-12 07:10:00,29.8,20.6,29.77,SE,141,5.0,7.0,68,0.00,,SCT,0.00,WeatherDisplay:10.37,2013-03-12 07:10:00,
2013-03-12 07:15:00,29.7,20.4,29.77,ESE,120,5.0,6.0,68,0.00,,SCT,0.00,WeatherDisplay:10.37,2013-03-12 07:15:00,
2013-03-12 07:20:00,29.8,20.6,29.77,NE,51,6.0,6.0,68,0.00,,SCT,0.00,WeatherDisplay:10.37,2013-03-12 07:20:00,
2013-03-12 07:25:00,30.0,20.7,29.77,NE,43,3.0,5.0,68,0.00,,SCT,0.00,WeatherDisplay:10.37,2013-03-12 07:25:00,
2013-03-12 07:35:00,30.4,20.7,29.78,East,81,12.0,12.0,67,0.00,,SCT,0.00,WeatherDisplay:10.37,2013-03-12 07:35:00,
2013-03-12 07:40:00,30.4,20.7,29.78,ESE,111,3.0,6.0,67,0.00,,SCT,0.00,WeatherDisplay:10.37,2013-03-12 07:40:00,
2013-03-12 07:45:00,30.4,20.7,29.78,ESE,119,3.0,7.0,67,0.00,,SCT,0.00,WeatherDisplay:10.37,2013-03-12 07:45:00,
2013-03-12 07:55:00,30.6,20.9,29.79,East,94,8.0,9.0,67,0.00,,SCT,0.00,WeatherDisplay:10.37,2013-03-12 07:55:00,
2013-03-12 08:00:00,30.7,21.1,29.79,ESE,123,2.0,9.0,67,0.00,,SCT,0.00,WeatherDisplay:10.37,2013-03-12 08:00:00,
2013-03-12 08:05:00,31.2,21.5,29.78,SE,125,6.0,10.0,67,0.00,,SCT,0.00,WeatherDisplay:10.37,2013-03-12 08:05:00,
2013-03-12 08:10:00,31.6,21.9,29.78,NNW,346,7.0,10.0,67,0.00,,SCT,0.00,WeatherDisplay:10.37,2013-03-12 08:10:00,
2013-03-12 08:15:00,31.6,21.9,29.78,NNW,337,5.0,6.0,67,0.00,,SCT,0.00,WeatherDisplay:10.37,2013-03-12 08:15:00,
2013-03-12 08:20:00,31.6,21.6,29.79,SSE,153,2.0,8.0,66,0.00,,SCT,0.00,WeatherDisplay:10.37,2013-03-12 08:20:00,
2013-03-12 08:25:00,31.6,21.6,29.79,ENE,75,2.0,5.0,66,0.00,,SCT,0.00,WeatherDisplay:10.37,2013-03-12 08:25:00,
2013-03-12 08:30:00,31.6,21.6,29.79,NE,45,5.0,6.0,66,0.00,,SCT,0.00,WeatherDisplay:10.37,2013-03-12 08:30:00,
2013-03-12 08:40:00,31.8,21.7,29.79,SE,126,3.0,4.0,66,0.00,,SCT,0.00,WeatherDisplay:10.37,2013-03-12 08:40:00,
2013-03-12 08:45:00,31.8,21.4,29.79,NE,49,9.0,14.0,65,0.00,,SCT,0.00,WeatherDisplay:10.37,2013-03-12 08:45:00,
2013-03-12 08:50:00,32.2,21.7,29.79,ENE,59,3.0,9.0,65,0.00,,SCT,0.00,WeatherDisplay:10.37,2013-03-12 08:50:00,
2013-03-12 08:55:00,32.4,21.5,29.79,NE,55,16.0,17.0,64,0.00,,SCT,0.00,WeatherDisplay:10.37,2013-03-12 08:55:00,
2013-03-12 09:05:00,32.7,21.9,29.80,East,94,2.0,7.0,64,0.00,,SCT,0.00,WeatherDisplay:10.37,2013-03-12 09:05:00,
2013-03-12 09:10:00,32.7,21.5,29.80,SE,142,10.0,12.0,63,0.00,,SCT,0.00,WeatherDisplay:10.37,2013-03-12 09:10:00,
2013-03-12 09:20:00,32.7,20.7,29.80,ESE,118,3.0,8.0,61,0.00,,SCT,0.00,WeatherDisplay:10.37,2013-03-12 09:20:00,
2013-03-12 09:25:00,32.7,20.7,29.80,ESE,108,6.0,7.0,61,0.00,,SCT,0.00,WeatherDisplay:10.37,2013-03-12 09:25:00,
2013-03-12 09:30:00,34.3,22.3,29.80,East,82,2.0,6.0,61,0.00,,SCT,0.00,WeatherDisplay:10.37,2013-03-12 09:30:00,
2013-03-12 09:35:00,34.6,22.1,29.81,North,357,20.0,20.0,60,0.00,,SCT,0.00,WeatherDisplay:10.37,2013-03-12 09:35:00,
2013-03-12 09:40:00,34.9,22.0,29.81,South,180,3.0,8.0,59,0.00,,SCT,0.00,WeatherDisplay:10.37,2013-03-12 09:40:00,
2013-03-12 09:50:00,35.4,22.1,29.81,NE,40,8.0,8.0,58,0.00,,SCT,0.00,WeatherDisplay:10.37,2013-03-12 09:50:00,
2013-03-12 10:00:00,35.9,22.2,29.81,ESE,104,2.0,9.0,57,0.00,,SCT,0.00,WeatherDisplay:10.37,2013-03-12 10:00:00,
2013-03-12 10:05:00,36.3,22.5,29.81,ENE,66,12.0,13.0,57,0.00,,SCT,0.00,WeatherDisplay:10.37,2013-03-12 10:05:00,
2013-03-12 10:10:00,36.3,22.5,29.81,NE,54,5.0,13.0,57,0.00,,SCT,0.00,WeatherDisplay:10.37,2013-03-12 10:10:00,
2013-03-12 10:15:00,36.5,22.7,29.81,NE,50,2.0,3.0,57,0.00,,SCT,0.00,WeatherDisplay:10.37,2013-03-12 10:15:00,
2013-03-12 10:20:00,36.9,23.1,29.81,West,266,3.0,5.0,57,0.00,,SCT,0.00,WeatherDisplay:10.37,2013-03-12 10:20:00,
2013-03-12 10:25:00,37.2,23.3,29.81,ENE,74,7.0,8.0,57,0.00,,SCT,0.00,WeatherDisplay:10.37,2013-03-12 10:25:00,
2013-03-12 10:35:00,37.7,23.4,29.81,East,87,8.0,9.0,56,0.00,,SCT,0.00,WeatherDisplay:10.37,2013-03-12 10:35:00,
2013-03-12 10:45:00,37.8,23.0,29.81,NW,313,7.0,9.0,55,0.00,,SCT,0.00,WeatherDisplay:10.37,2013-03-12 10:45:00,
2013-03-12 10:50:00,37.6,22.9,29.81,East,96,5.0,9.0,55,0.00,,SCT,0.00,WeatherDisplay:10.37,2013-03-12 10:50:00,
2013-03-12 10:55:00,38.0,23.7,29.81,SE,128,5.0,5.0,56,0.00,,SCT,0.00,WeatherDisplay:10.37,2013-03-12 10:55:00,
2013-03-12 11:00:00,38.7,24.7,29.81,SE,131,2.0,4.0,57,0.00,,SCT,0.00,WeatherDisplay:10.37,2013-03-12 11:00:00,
2013-03-12 11:05:00,39.2,24.4,29.81,SE,127,5.0,5.0,55,0.00,,SCT,0.00,WeatherDisplay:10.37,2013-03-12 11:05:00,
2013-03-12 11:10:00,39.5,24.2,29.82,ENE,73,7.0,9.0,54,0.00,,SCT,0.00,WeatherDisplay:10.37,2013-03-12 11:10:00,
2013-03-12 11:20:00,40.2,24.4,29.81,ESE,110,2.0,9.0,53,0.00,,SCT,0.00,WeatherDisplay:10.37,2013-03-12 11:20:00,
2013-03-12 11:25:00,40.7,24.9,29.81,ESE,106,3.0,5.0,53,0.00,,SCT,0.00,WeatherDisplay:10.37,2013-03-12 11:25:00,
2013-03-12 11:30:00,40.8,25.0,29.81,East,89,3.0,5.0,53,0.00,,SCT,0.00,WeatherDisplay:10.37,2013-03-12 11:30:00,
2013-03-12 11:40:00,40.8,24.1,29.81,NNE,31,5.0,7.0,51,0.00,,SCT,0.00,WeatherDisplay:10.37,2013-03-12 11:40:00,
2013-03-12 11:45:00,41.0,24.3,29.81,East,101,10.0,10.0,51,0.00,,SCT,0.00,WeatherDisplay:10.37,2013-03-12 11:45:00,
2013-03-12 11:50:00,41.5,24.7,29.81,ESE,122,5.0,10.0,51,0.00,,SCT,0.00,WeatherDisplay:10.37,2013-03-12 11:50:00,
2013-03-12 11:55:00,41.5,24.7,29.81,ENE,77,5.0,7.0,51,0.00,,SCT,0.00,WeatherDisplay:10.37,2013-03-12 11:55:00,
2013-03-12 12:01:00,41.3,24.1,29.81,East,82,6.0,6.0,50,0.00,,SCT,0.00,WeatherDisplay:10.37,2013-03-12 12:01:00,
2013-03-12 12:10:00,40.9,24.1,29.81,SE,127,6.0,12.0,51,0.00,,SCT,0.00,WeatherDisplay:10.37,2013-03-12 12:10:00,
2013-03-12 12:20:00,40.6,23.9,29.81,SSE,167,7.0,12.0,51,0.00,,SCT,0.00,WeatherDisplay:10.37,2013-03-12 12:20:00,
2013-03-12 12:25:00,40.5,23.8,29.81,South,185,3.0,5.0,51,0.00,,SCT,0.00,WeatherDisplay:10.37,2013-03-12 12:25:00,
2013-03-12 12:35:00,40.0,23.3,29.81,NNW,336,3.0,6.0,51,0.00,,SCT,0.00,WeatherDisplay:10.37,2013-03-12 12:35:00,
2013-03-12 12:40:00,39.9,23.6,29.81,NW,315,3.0,6.0,52,0.00,,SCT,0.00,WeatherDisplay:10.37,2013-03-12 12:40:00,
2013-03-12 12:50:00,40.9,24.6,29.81,NE,40,8.0,11.0,52,0.00,,SCT,0.00,WeatherDisplay:10.37,2013-03-12 12:50:00,
2013-03-12 12:55:00,41.7,25.3,29.81,NNE,33,5.0,6.0,52,0.00,,SCT,0.00,WeatherDisplay:10.37,2013-03-12 12:55:00,
2013-03-12 13:00:00,42.4,25.5,29.80,SSE,154,2.0,4.0,51,0.00,,SCT,0.00,WeatherDisplay:10.37,2013-03-12 13:00:00,
2013-03-12 13:05:00,43.3,26.4,29.81,SE,138,2.0,4.0,51,0.00,,SCT,0.00,WeatherDisplay:10.37,2013-03-12 13:05:00,
2013-03-12 13:10:00,44.0,27.4,29.81,SE,135,3.0,4.0,52,0.00,,SCT,0.00,WeatherDisplay:10.37,2013-03-12 13:10:00,
2013-03-12 13:15:00,44.5,27.0,29.81,SSE,155,3.0,4.0,50,0.00,,SCT,0.00,WeatherDisplay:10.37,2013-03-12 13:15:00,
2013-03-12 13:20:00,44.8,27.3,29.80,SW,217,3.0,7.0,50,0.00,,SCT,0.00,WeatherDisplay:10.37,2013-03-12 13:20:00,
2013-03-12 13:30:00,45.5,27.5,29.80,NW,312,2.0,6.0,49,0.00,,SCT,0.00,WeatherDisplay:10.37,2013-03-12 13:30:00,
2013-03-12 13:35:00,45.7,27.6,29.80,WSW,245,3.0,4.0,49,0.00,,SCT,0.00,WeatherDisplay:10.37,2013-03-12 13:35:00,
2013-03-12 13:45:00,45.0,26.5,29.80,NE,48,6.0,12.0,48,0.00,,SCT,0.00,WeatherDisplay:10.37,2013-03-12 13:45:00,
2013-03-12 13:55:00,43.2,25.3,29.80,ENE,69,7.0,8.0,49,0.00,,SCT,0.00,WeatherDisplay:10.37,2013-03-12 13:55:00,
2013-03-12 14:00:00,43.0,25.6,29.80,NE,49,1.0,8.0,50,0.00,,SCT,0.00,WeatherDisplay:10.37,2013-03-12 14:00:00,
2013-03-12 14:05:00,43.0,26.1,29.79,East,91,10.0,15.0,51,0.00,,SCT,0.00,WeatherDisplay:10.37,2013-03-12 14:05:00,
2013-03-12 14:10:00,42.6,25.3,29.79,ENE,60,8.0,12.0,50,0.00,,SCT,0.00,WeatherDisplay:10.37,2013-03-12 14:10:00,
2013-03-12 14:15:00,42.1,24.8,29.80,NE,42,5.0,12.0,50,0.00,,SCT,0.00,WeatherDisplay:10.37,2013-03-12 14:15:00,
2013-03-12 14:20:00,42.2,24.9,29.79,ENE,62,7.0,8.0,50,0.00,,SCT,0.00,WeatherDisplay:10.37,2013-03-12 14:20:00,
2013-03-12 14:25:00,42.4,25.1,29.80,ENE,63,7.0,8.0,50,0.00,,SCT,0.00,WeatherDisplay:10.37,2013-03-12 14:25:00,
2013-03-12 14:35:00,43.0,25.1,29.79,SSW,197,13.0,13.0,49,0.00,,SCT,0.00,WeatherDisplay:10.37,2013-03-12 14:35:00,
2013-03-12 14:40:00,43.3,25.4,29.79,SSW,201,10.0,13.0,49,0.00,,SCT,0.00,WeatherDisplay:10.37,2013-03-12 14:40:00,
2013-03-12 14:45:00,43.3,25.9,29.80,South,178,10.0,10.0,50,0.00,,SCT,0.00,WeatherDisplay:10.37,2013-03-12 14:45:00,
2013-03-12 14:50:00,43.3,25.9,29.79,SSE,167,5.0,10.0,50,0.00,,SCT,0.00,WeatherDisplay:10.37,2013-03-12 14:50:00,
2013-03-12 14:55:00,43.3,25.4,29.79,ENE,74,5.0,10.0,49,0.00,,SCT,0.00,WeatherDisplay:10.37,2013-03-12 14:55:00,
2013-03-12 15:00:00,43.5,25.6,29.79,ENE,65,3.0,16.0,49,0.00,,SCT,0.00,WeatherDisplay:10.37,2013-03-12 15:00:00,
2013-03-12 15:10:00,43.7,26.2,29.79,ESE,111,3.0,6.0,50,0.00,,SCT,0.00,WeatherDisplay:10.37,2013-03-12 15:10:00,
2013-03-12 15:15:00,43.7,25.8,29.79,ENE,70,7.0,7.0,49,0.00,,SCT,0.00,WeatherDisplay:10.37,2013-03-12 15:15:00,
2013-03-12 15:25:00,44.1,26.2,29.79,SE,127,5.0,9.0,49,0.00,,SCT,0.00,WeatherDisplay:10.37,2013-03-12 15:25:00,
2013-03-12 15:35:00,43.4,26.0,29.79,SSW,199,3.0,6.0,50,0.00,,SCT,0.00,WeatherDisplay:10.37,2013-03-12 15:35:00,
2013-03-12 15:40:00,43.3,25.9,29.79,SE,146,5.0,8.0,50,0.00,,SCT,0.00,WeatherDisplay:10.37,2013-03-12 15:40:00,
2013-03-12 15:50:00,42.8,25.9,29.79,East,82,8.0,9.0,51,0.00,,SCT,0.00,WeatherDisplay:10.37,2013-03-12 15:50:00,
2013-03-12 15:55:00,42.4,25.6,29.80,ESE,104,3.0,5.0,51,0.00,,SCT,0.00,WeatherDisplay:10.37,2013-03-12 15:55:00,
2013-03-12 16:05:00,41.7,25.8,29.79,NE,56,3.0,7.0,53,0.00,,SCT,0.00,WeatherDisplay:10.37,2013-03-12 16:05:00,
2013-03-12 16:10:00,41.5,25.7,29.79,ENE,61,13.0,13.0,53,0.00,,SCT,0.00,WeatherDisplay:10.37,2013-03-12 16:10:00,
2013-03-12 16:15:00,41.4,25.6,29.79,East,83,5.0,13.0,53,0.00,,SCT,0.00,WeatherDisplay:10.37,2013-03-12 16:15:00,
2013-03-12 16:25:00,41.2,25.8,29.79,SE,142,3.0,4.0,54,0.00,,SCT,0.00,WeatherDisplay:10.37,2013-03-12 16:25:00,
2013-03-12 16:30:00,40.9,25.5,29.79,SE,125,3.0,10.0,54,0.00,,SCT,0.00,WeatherDisplay:10.37,2013-03-12 16:30:00,
2013-03-12 16:35:00,40.6,25.7,29.79,ESE,119,1.0,6.0,55,0.00,,SCT,0.00,WeatherDisplay:10.37,2013-03-12 16:35:00,
2013-03-12 16:45:00,40.3,25.8,29.79,North,359,2.0,9.0,56,0.00,,SCT,0.00,WeatherDisplay:10.37,2013-03-12 16:45:00,
2013-03-12 16:55:00,40.1,25.6,29.79,NE,49,6.0,6.0,56,0.00,,SCT,0.00,WeatherDisplay:10.37,2013-03-12 16:55:00,
2013-03-12 17:00:00,39.8,25.8,29.80,NE,56,3.0,14.0,57,0.00,,SCT,0.00,WeatherDisplay:10.37,2013-03-12 17:00:00,
2013-03-12 17:05:00,39.6,25.6,29.79,WSW,242,3.0,14.0,57,0.00,,SCT,0.00,WeatherDisplay:10.37,2013-03-12 17:05:00,
2013-03-12 17:15:00,39.4,25.8,29.80,NE,37,7.0,8.0,58,0.00,,SCT,0.00,WeatherDisplay:10.37,2013-03-12 17:15:00,
2013-03-12 17:20:00,38.8,26.5,29.80,East,82,5.0,8.0,61,0.00,,SCT,0.00,WeatherDisplay:10.37,2013-03-12 17:20:00,
2013-03-12 17:25:00,38.5,26.6,29.81,East,99,5.0,7.0,62,0.00,,SCT,0.00,WeatherDisplay:10.37,2013-03-12 17:25:00,
2013-03-12 17:30:00,38.0,26.6,29.80,East,99,5.0,5.0,63,0.00,,SCT,0.00,WeatherDisplay:10.37,2013-03-12 17:30:00,
2013-03-12 17:35:00,37.9,26.8,29.80,East,89,3.0,5.0,64,0.00,,SCT,0.00,WeatherDisplay:10.37,2013-03-12 17:35:00,
2013-03-12 17:40:00,37.6,26.9,29.81,East,83,2.0,3.0,65,0.00,,SCT,0.00,WeatherDisplay:10.37,2013-03-12 17:40:00,
2013-03-12 17:50:00,37.2,26.9,29.81,ESE,111,2.0,3.0,66,0.00,,SCT,0.00,WeatherDisplay:10.37,2013-03-12 17:50:00,
2013-03-12 17:55:00,37.0,27.1,29.81,East,79,2.0,2.0,67,0.00,,SCT,0.00,WeatherDisplay:10.37,2013-03-12 17:55:00,
2013-03-12 18:05:00,36.7,27.1,29.81,East,81,3.0,5.0,68,0.00,,SCT,0.00,WeatherDisplay:10.37,2013-03-12 18:05:00,
2013-03-12 18:10:00,36.5,27.3,29.81,ENE,62,3.0,3.0,69,0.00,,SCT,0.00,WeatherDisplay:10.37,2013-03-12 18:10:00,
2013-03-12 18:20:00,36.5,27.6,29.81,NE,36,1.0,3.0,70,0.00,,SCT,0.00,WeatherDisplay:10.37,2013-03-12 18:20:00,
2013-03-12 18:25:00,36.3,27.5,29.81,NE,44,1.0,2.0,70,0.00,,SCT,0.00,WeatherDisplay:10.37,2013-03-12 18:25:00,
2013-03-12 18:30:00,36.3,27.5,29.81,East,80,3.0,4.0,70,0.00,,SCT,0.00,WeatherDisplay:10.37,2013-03-12 18:30:00,
2013-03-12 18:35:00,36.3,27.8,29.81,ENE,71,2.0,5.0,71,0.00,,SCT,0.00,WeatherDisplay:10.37,2013-03-12 18:35:00,
2013-03-12 18:45:00,36.3,28.2,29.81,WNW,298,1.0,4.0,72,0.00,,SCT,0.00,WeatherDisplay:10.37,2013-03-12 18:45:00,
2013-03-12 18:50:00,36.3,28.2,29.81,NNE,23,2.0,2.0,72,0.00,,SCT,0.00,WeatherDisplay:10.37,2013-03-12 18:50:00,
2013-03-12 19:00:00,36.3,28.2,29.81,ENE,76,1.0,4.0,72,0.00,,SCT,0.00,WeatherDisplay:10.37,2013-03-12 19:00:00,
2013-03-12 19:10:00,36.3,28.5,29.81,NE,38,2.0,2.0,73,0.00,,SCT,0.00,WeatherDisplay:10.37,2013-03-12 19:10:00,
2013-03-12 19:15:00,36.2,28.4,29.81,NE,47,1.0,4.0,73,0.00,,SCT,0.00,WeatherDisplay:10.37,2013-03-12 19:15:00,
2013-03-12 19:25:00,36.0,28.5,29.81,East,98,0.0,1.0,74,0.00,,SCT,0.00,WeatherDisplay:10.37,2013-03-12 19:25:00,
2013-03-12 19:30:00,35.8,28.3,29.81,SE,139,0.0,0.0,74,0.00,,SCT,0.00,WeatherDisplay:10.37,2013-03-12 19:30:00,
2013-03-12 19:35:00,35.4,28.0,29.81,ESE,119,2.0,3.0,74,0.00,,SCT,0.00,WeatherDisplay:10.37,2013-03-12 19:35:00,
2013-03-12 19:40:00,35.2,27.8,29.80,ENE,69,1.0,2.0,74,0.00,,SCT,0.00,WeatherDisplay:10.37,2013-03-12 19:40:00,
2013-03-12 19:45:00,34.8,27.7,29.81,NE,44,0.0,2.0,75,0.00,,SCT,0.00,WeatherDisplay:10.37,2013-03-12 19:45:00,
2013-03-12 19:55:00,34.7,27.9,29.81,East,88,3.0,3.0,76,0.00,,SCT,0.00,WeatherDisplay:10.37,2013-03-12 19:55:00,
2013-03-12 20:05:00,34.9,28.4,29.81,East,85,0.0,2.0,77,0.00,,SCT,0.00,WeatherDisplay:10.37,2013-03-12 20:05:00,
2013-03-12 20:10:00,34.9,28.4,29.81,East,91,2.0,2.0,77,0.00,,SCT,0.00,WeatherDisplay:10.37,2013-03-12 20:10:00,
2013-03-12 20:15:00,35.0,28.5,29.81,East,80,1.0,2.0,77,0.00,,SCT,0.00,WeatherDisplay:10.37,2013-03-12 20:15:00,
2013-03-12 20:20:00,35.2,28.8,29.81,NE,50,1.0,2.0,77,0.00,,SCT,0.00,WeatherDisplay:10.37,2013-03-12 20:20:00,
2013-03-12 20:25:00,35.2,28.8,29.81,NE,34,1.0,4.0,77,0.00,,SCT,0.00,WeatherDisplay:10.37,2013-03-12 20:25:00,
2013-03-12 20:30:00,35.4,28.9,29.81,NNE,22,1.0,2.0,77,0.00,,SCT,0.00,WeatherDisplay:10.37,2013-03-12 20:30:00,
2013-03-12 20:40:00,35.6,29.1,29.81,ENE,62,0.0,2.0,77,0.00,,SCT,0.00,WeatherDisplay:10.37,2013-03-12 20:40:00,
2013-03-12 20:45:00,35.8,29.3,29.81,ENE,64,0.0,2.0,77,0.00,,SCT,0.00,WeatherDisplay:10.37,2013-03-12 20:45:00,
2013-03-12 20:55:00,35.4,28.9,29.81,West,273,0.0,2.0,77,0.00,,SCT,0.00,WeatherDisplay:10.37,2013-03-12 20:55:00,
2013-03-12 21:05:00,35.4,29.2,29.81,ESE,104,1.0,1.0,78,0.00,,SCT,0.00,WeatherDisplay:10.37,2013-03-12 21:05:00,
2013-03-12 21:15:00,35.4,29.2,29.81,East,86,0.0,2.0,78,0.00,,SCT,0.00,WeatherDisplay:10.37,2013-03-12 21:15:00,
2013-03-12 21:25:00,35.8,29.9,29.81,ENE,59,3.0,4.0,79,0.00,,SCT,0.00,WeatherDisplay:10.37,2013-03-12 21:25:00,
2013-03-12 21:30:00,35.8,29.9,29.81,ENE,72,1.0,3.0,79,0.00,,SCT,0.00,WeatherDisplay:10.37,2013-03-12 21:30:00,
2013-03-12 21:35:00,35.8,29.9,29.81,NE,43,3.0,6.0,79,0.00,,SCT,0.00,WeatherDisplay:10.37,2013-03-12 21:35:00,
2013-03-12 21:40:00,36.0,30.1,29.81,NE,44,2.0,3.0,79,0.00,,SCT,0.00,WeatherDisplay:10.37,2013-03-12 21:40:00,
2013-03-12 21:45:00,36.0,30.1,29.81,East,83,1.0,2.0,79,0.00,,SCT,0.00,WeatherDisplay:10.37,2013-03-12 21:45:00,
2013-03-12 21:50:00,36.0,30.1,29.81,East,95,3.0,4.0,79,0.00,,SCT,0.00,WeatherDisplay:10.37,2013-03-12 21:50:00,
2013-03-12 21:55:00,36.0,30.4,29.81,East,87,0.0,4.0,80,0.00,,SCT,0.00,WeatherDisplay:10.37,2013-03-12 21:55:00,
2013-03-12 22:00:00,35.8,30.2,29.81,East,79,0.0,1.0,80,0.00,,SCT,0.00,WeatherDisplay:10.37,2013-03-12 22:00:00,
2013-03-12 22:10:00,35.8,30.5,29.81,SE,129,2.0,6.0,81,0.00,,SCT,0.00,WeatherDisplay:10.37,2013-03-12 22:10:00,
2013-03-12 22:20:00,35.6,30.3,29.81,ENE,68,2.0,3.0,81,0.00,,SCT,0.00,WeatherDisplay:10.37,2013-03-12 22:20:00,
2013-03-12 22:25:00,35.4,30.2,29.81,East,82,2.0,3.0,81,0.00,,SCT,0.00,WeatherDisplay:10.37,2013-03-12 22:25:00,
2013-03-12 22:30:00,35.4,30.2,29.81,ESE,117,1.0,1.0,81,0.00,,SCT,0.00,WeatherDisplay:10.37,2013-03-12 22:30:00,
2013-03-12 22:35:00,35.4,30.5,29.81,SSE,164,0.0,1.0,82,0.00,,SCT,0.00,WeatherDisplay:10.37,2013-03-12 22:35:00,
2013-03-12 22:40:00,35.4,30.5,29.81,East,83,0.0,2.0,82,0.00,,SCT,0.00,WeatherDisplay:10.37,2013-03-12 22:40:00,
2013-03-12 22:45:00,35.4,30.5,29.80,ENE,73,0.0,0.0,82,0.00,,SCT,0.00,WeatherDisplay:10.37,2013-03-12 22:45:00,
2013-03-12 22:55:00,35.4,30.5,29.80,East,84,0.0,1.0,82,0.00,,SCT,0.00,WeatherDisplay:10.37,2013-03-12 22:55:00,
2013-03-12 23:00:00,35.3,30.3,29.80,SSE,148,0.0,0.0,82,0.00,,SCT,0.00,WeatherDisplay:10.37,2013-03-12 23:00:00,
2013-03-12 23:10:00,35.2,30.3,29.80,SE,135,0.0,0.0,82,0.00,,SCT,0.00,WeatherDisplay:10.37,2013-03-12 23:10:00,
2013-03-12 23:15:00,35.2,30.3,29.80,WNW,292,0.0,0.0,82,0.00,,SCT,0.00,WeatherDisplay:10.37,2013-03-12 23:15:00,
2013-03-12 23:20:00,35.2,30.3,29.80,NW,315,0.0,0.0,82,0.00,,SCT,0.00,WeatherDisplay:10.37,2013-03-12 23:20:00,
2013-03-12 23:25:00,35.1,30.4,29.80,WNW,295,1.0,2.0,83,0.00,,SCT,0.00,WeatherDisplay:10.37,2013-03-12 23:25:00,
2013-03-12 23:30:00,35.1,30.4,29.80,WNW,301,0.0,1.0,83,0.00,,SCT,0.00,WeatherDisplay:10.37,2013-03-12 23:30:00,
2013-03-12 23:35:00,34.9,30.2,29.80,NE,44,0.0,1.0,83,0.00,,SCT,0.00,WeatherDisplay:10.37,2013-03-12 23:35:00,
2013-03-12 23:40:00,34.9,30.2,29.79,NNE,12,1.0,1.0,83,0.00,,SCT,0.00,WeatherDisplay:10.37,2013-03-12 23:40:00,
2013-03-12 23:45:00,34.9,30.2,29.79,WSW,238,0.0,0.0,83,0.00,,SCT,0.00,WeatherDisplay:10.37,2013-03-12 23:45:00,
2013-03-12 23:50:00,34.9,30.2,29.79,WSW,240,0.0,0.0,83,0.00,,SCT,0.00,WeatherDisplay:10.37,2013-03-12 23:50:00,
2013-03-12 23:55:00,34.9,30.2,29.79,SW,221,0.0,0.0,83,0.00,,SCT,0.00,WeatherDisplay:10.37,2013-03-12 23:55:00,